Home   Weather   Borken   Past weeks

Flag for Germany Past Weather in Borken, North Rhine-Westphalia, Germany — Yesterday and Last 2 Weeks

Now
49 °F

Overcast.


Feels Like: 47 °F
Forecast: 45 / 50 °F
Wind: 6 mph from East

Location: Twenthe

Current Time: May 1, 2017 at 6:37:32 am

Latest Report: May 1, 2017 at 5:00 am


Visibility: 22 mi

Pressure: 29.73 "Hg

Humidity: 61%

Dew Point: 36 °F

Location of BorkenLocation

Past Weather in Borken — Graph

°F

Borken Temperature Yesterday

Maximum temperature yesterday: 64 °F (at 4:00 pm)
Minimum temperature yesterday: 37 °F (at 2:00 am)
Average temperature yesterday: 51 °F

High & Low Weather Summary for the Past Weeks

 TemperatureHumidityPressure
High64 °F (Apr 30, 4:00 pm)100% (Apr 20, 7:00 am)30.65 "Hg (Apr 20, 7:00 am)
Low25 °F (Apr 20, 6:00 am)35% (Apr 20, 4:00 pm)29.66 "Hg (Apr 25, 5:00 am)
Average44 °F72%30.13 "Hg
* Reported Apr 16 5:00 am — May 1 4:00 am, Borken, Weather by CustomWeather, © 2017

Note: Actual official high and low records may vary slightly from our data, if they occured in-between our weather recording intervals... More about our weather records

Advertising

Borken Weather History for the Previous 24 Hours

Scroll right to see more
 ConditionsComfort  
Time TempWeatherWind HumidityBarometerVisibility
4:00 am
Mon, May 1
49 °FOvercast.6 mph58%29.73 "Hg25 mi
3:00 am51 °FOvercast.6 mph54%29.73 "Hg28 mi
2:00 am53 °FOvercast.6 mph48%29.74 "Hg28 mi
1:00 am54 °FOvercast.6 mph46%29.75 "Hg28 mi
12:00 am55 °FOvercast.7 mph46%29.75 "Hg28 mi
11:00 pm
Sun, Apr 30
55 °FOvercast.6 mph45%29.76 "Hg28 mi
10:00 pm56 °FOvercast.5 mph44%29.77 "Hg28 mi
9:00 pm58 °FOvercast.5 mph40%29.76 "Hg25 mi
8:00 pm61 °FPartly sunny.6 mph38%29.75 "Hg22 mi
7:00 pm62 °FOvercast.8 mph38%29.76 "Hg22 mi
6:00 pm63 °FOvercast.7 mph35%29.77 "Hg19 mi
4:00 pm64 °FOvercast.9 mph37%29.82 "Hg19 mi
3:00 pm62 °FOvercast.9 mph39%29.85 "Hg16 mi
2:00 pm62 °FScattered clouds.8 mph38%29.87 "Hg22 mi
1:00 pm60 °FOvercast.7 mph42%29.90 "Hg19 mi
12:00 pm58 °FOvercast.7 mph46%29.92 "Hg19 mi
10:00 am52 °FScattered clouds.6 mph50%29.96 "Hg22 mi
9:00 am47 °FSunny.7 mph57%29.98 "Hg25 mi
8:00 am43 °FSunny.6 mph64%30.00 "Hg25 mi
7:00 am40 °FSunny.6 mph70%30.00 "Hg28 mi
6:00 am39 °FClear.5 mph71%30.02 "Hg28 mi
Weather by CustomWeather, © 2017

See weather overviewHow to use our weather pages